Presure
184 159 88 88 93 94 128 100 106 137 181 184 181 180 174 162 183 150 194 184 153 176 175 139 183 198 210 207 131 130 168 229 228 218 217 220 222 221 217 212 147 191 163 110 110
84 109 121 190 181 168 184 185 182 183 130 180 161 177 183 159 150 162 148 179 144 165 179 177 199 160 133 167 199 199 202 215 223 220 210 210 207 206 207 205 201 211 203 181 212
174 164 181 202 181 170 178 89 168 175 190 165 170 171 187 174 167 171 170 188 190 200 187 170 169 174 209 186 178 178 179 186 183 183 217 213 219 216 207 199 199 195 189 189 192
153 163 194 194 189 183 168 173 173 178 171 173 155 174 170 152 171 174 173 171 125 131 124 207 181 181 213 235 227 190 175 165 163 162 180 180 183 195 214 218 214 208 203 198 193
90 148 181 187 183 176 179 173 173 173 162 178 124 114 119 125 165 148 150 215 169 170 199 223 225 183 209 238 244 249 237 222 214 210 181 168 183 170 173 177 177 175 178 206 185
181 139 133 130 170 178 174 179 174 145 110 120 129 134 132 134 172 181 165 178 190 203 198 198 236 188 210 230 230 220 208 229 240 233 221 209 205 202 199 195 197 187 161 163 168
147 135 128 118 131 125 121 123 112 111 135 134 168 162 150 179 176 137 160 169 207 174 173 186 217 194 190 201 241 237 226 228 217 201 240 238 229 227 223 220 215 212 207 204 203
144 135 134 125 124 120 113 117 117 126 159 182 159 152 164 166 174 193 159 172 182 179 163 183 196 229 193 209 181 200 184 207 197 185 241 218 256 249 249 223 235 230 226 223 219
160 172 175 157 129 123 114 117 127 171 160 172 167 164 161 138 169 178 179 172 183 173 159 153 209 190 206 185 264 149 167 218 188 228 222 187 202 242 235 232 229 223 222 217 211
175 182 183 170 143 137 125 134 154 154 170 168 171 177 168 139 167 185 179 177 154 165 219 146 134 158 170 209 218 173 184 183 166 195 221 218 194 204 161 189 165 218 210 214 234
172 163 174 159 150 139 140 176 160 137 175 177 171 175 161 133 171 162 174 178 150 167 211 143 176 196 229 222 164 208 163 167 188 214 209 133 188 207 221 179 194 145 200 178 146
126 133 138 132 146 141 183 112 114 142 158 171 164 150 139 172 179 162 191 188 177 156 175 182 180 176 156 208 200 161 163 192 143 188 194 140 162 149 188 196 189 155 213 198 211
131 130 122 127 115 123 123 149 137 110 164 157 169 156 165 159 154 185 194 173 151 170 158 174 167 184 195 211 177 178 193 179 196 183 177 169 167 202 194 188 189 169 211 187 191
103 123 124 133 155 124 168 132 157 168 159 169 166 141 153 156 174 178 168 165 153 147 168 133 170 184 143 194 172 174 159 175 165 141 192 143 217 200 183 193 137 133 162 209 241
136 169 169 170 129 132 153 142 167 148 166 166 93 154 154 169 166 158 172 158 160 150 174 157 171 179 159 146 191 156 169 150 161 180 203 165 194 162 168 182 217 178 229 195 228
184 170 158 158 156 175 132 156 116 163 147 166 163 158 158 166 177 170 175 131 173 137 180 170 159 184 157 200 184 165 205 167 157 170 178 214 182 145 200 179 225 197 199 220 195
142 161 162 160 155 163 136 117 95 161 159 157 153 149 152 149 138 170 159 153 145 165 172 186 170 159 193 199 162 188 181 177 178 185 188 186 183 185 196 205 207 226 219 242 210
145 159 149 171 145 144 153 97 155 158 168 161 161 159 153 161 159 170 180 139 151 165 170 165 161 179 166 162 146 172 159 162 174 196 198 173 197 212 228 193 222 182 228 207 267
154 159 165 156 169 160 165 157 161 160 159 156 157 178 164 167 155 147 121 130 159 176 151 161 176 171 146 185 157 196 146 187 168 163 183 194 180 176 178 203 212 223 226 266 258
162 157 168 153 155 151 157 159 153 162 156 152 154 151 165 150 164 172 137 175 145 147 164 176 171 156 170 188 208 178 155 173 179 198 201 183 177 177 187 215 194 241 198 278 265
156 161 168 160 149 159 167 152 151 148 156 160 140 147 142 150 143 158 164 163 166 156 166 142 181 156 190 173 176 171 170 176 172 167 180 184 178 206 177 181 237 234 236 262 290
175 158 167 163 157 158 166 150 152 146 159 151 147 158 164 168 124 154 162 152 152 162 142 139 153 173 169 170 166 166 168 161 175 204 176 163 176 169 189 181 227 239 253 257 310
163 168 161 172 153 170 153 157 154 148 144 138 151 139 133 155 144 131 163 162 151 139 157 167 168 175 137 189 174 157 165 168 160 170 184 169 206 203 204 228 217 234 249 256 368
164 162 163 166 168 139 152 154 150 138 131 136 138 149 171 144 144 152 144 155 150 150 152 162 171 187 179 171 165 157 161 174 171 163 168 177 169 168 208 195 186 241 243 275 355
164 156 156 159 89 156 165 151 144 145 140 140 140 152 158 150 156 152 136 164 160 163 161 161 163 187 175 166 158 160 151 161 155 204 160 185 160 170 185 187 221 235 254 282 353
131 158 159 147 147 161 149 163 150 125 132 140 129 150 146 118 129 166 142 139 160 141 162 157 176 173 178 174 160 169 158 152 162 167 160 176 164 229 177 202 231 230 246 282 343
117 99 152 157 161 159 140 159 141 137 161 135 130 145 148 114 156 143 160 147 150 161 170 177 175 178 172 171 155 161 157 159 148 169 175 161 204 181 215 192 232 241 246 289 336
Wind_Speed
19 21 21 21 21 23 19 28 31 25 11 12 15 17 21 25 21 34 23 26 34 33 33 44 37 32 33 35 52 54 47 30 32 36 39 45 48 49 54 60 54 71 64 57 58
16 19 25 13 13 13 12 10 11 10 22 15 23 18 15 28 34 30 36 27 32 34 35 39 36 43 50 44 34 33 32 30 29 32 39 44 47 49 53 56 61 58 62 71 61
21 26 15 7 11 15 10 26 17 13 11 20 18 21 18 19 25 26 31 29 31 32 34 38 42 43 29 37 41 40 40 34 36 39 34 40 43 47 50 54 57 60 65 66 67
26 25 14 10 10 8 16 14 14 14 15 16 22 19 20 29 24 27 30 32 35 38 40 31 37 38 30 33 34 34 40 44 46 49 45 47 47 47 46 49 52 54 57 62 66
25 21 15 11 10 11 15 14 15 15 17 16 31 34 34 32 29 32 34 29 36 37 28 29 30 36 38 34 34 33 32 33 34 36 47 55 52 55 54 55 57 58 59 59 62
19 26 25 25 13 14 16 14 15 22 33 32 32 29 30 34 28 29 33 34 27 30 25 29 32 29 28 34 32 27 27 32 33 36 41 47 50 53 55 58 60 63 65 67 68
30 29 30 30 25 28 29 28 31 33 28 30 22 26 33 28 28 34 33 34 33 37 38 29 33 23 25 36 38 38 35 38 32 31 37 42 45 49 51 54 56 58 62 67 71
31 32 31 31 31 33 30 32 33 32 22 21 28 31 29 30 32 35 34 32 32 31 39 38 34 43 32 37 25 31 24 33 30 36 31 42 42 46 50 51 56 59 62 65 68
29 25 21 24 34 34 33 33 35 23 25 25 27 30 33 34 34 36 32 29 34 30 32 43 44 28 45 29 41 57 25 33 31 39 37 37 43 43 47 50 54 58 62 66 68
27 21 21 19 29 31 34 33 27 31 25 28 29 31 35 37 37 40 35 33 29 32 49 35 52 36 27 45 39 23 38 39 57 45 37 36 45 45 54 57 56 54 61 61 66
28 24 24 24 28 32 33 19 27 22 25 28 29 31 38 37 39 37 40 41 33 37 54 32 47 47 51 59 34 67 26 21 53 49 57 58 56 55 52 35 66 75 62 43 76
33 25 27 29 32 33 15 30 32 32 31 28 34 38 36 41 44 41 45 46 46 32 47 54 51 50 23 65 60 38 29 46 61 54 74 58 45 63 55 55 68 67 58 83 75
39 38 30 31 28 21 35 26 36 31 30 37 34 38 38 41 43 45 49 46 29 49 38 51 46 62 75 67 53 40 66 63 79 56 57 67 48 74 63 70 72 68 82 68 78
17 36 34 34 24 36 20 41 30 25 35 32 34 40 42 45 45 48 49 47 40 42 56 53 56 71 42 74 56 61 41 61 52 67 76 67 62 74 66 86 67 85 82 90 82
43 28 25 23 37 39 28 40 21 40 32 34 30 41 44 48 49 48 54 50 50 53 63 51 65 75 55 45 76 46 68 51 42 90 76 38 87 48 45 95 83 81 84 102 91
28 28 29 31 27 11 33 32 22 29 27 33 38 41 45 47 47 52 54 29 60 39 69 68 50 76 52 76 81 53 70 66 42 79 85 65 100 73 86 91 95 104 107 100 113
44 32 27 31 29 24 39 26 21 32 35 39 42 44 47 49 40 52 55 50 54 58 70 73 76 72 77 73 66 67 81 84 85 91 92 70 90 102 97 99 108 91 107 112 120
46 34 37 23 38 37 19 29 35 35 34 37 41 44 46 47 53 55 59 51 50 69 72 77 72 77 78 62 57 88 69 78 65 77 65 98 84 88 96 107 94 120 109 128 120
40 34 29 32 23 26 20 28 28 33 34 38 40 40 43 46 54 57 27 41 66 70 66 74 82 76 56 82 73 73 58 76 101 73 98 82 113 112 122 109 104 111 112 127 126
37 35 31 34 31 33 26 23 35 32 34 38 41 43 46 51 54 58 44 65 65 69 78 80 79 67 89 78 62 81 75 85 98 86 78 95 114 123 112 103 135 127 131 127 129
40 34 33 32 37 30 23 32 36 38 37 36 41 45 47 52 53 59 63 67 70 73 81 57 78 82 72 75 84 93 96 97 92 109 106 75 101 102 122 125 117 124 124 138 128
41 36 36 34 33 31 25 35 34 38 36 38 43 47 51 53 30 60 61 70 69 78 58 58 83 82 90 80 82 94 100 99 96 93 116 98 126 99 123 127 113 130 133 146 129
38 38 37 35 33 28 35 33 30 38 34 35 45 44 46 53 45 51 64 68 71 56 81 87 89 84 60 69 82 96 94 106 96 109 94 119 107 113 122 118 129 130 149 149 83
43 40 39 38 32 32 37 37 39 37 36 40 44 51 53 53 53 62 67 71 73 73 80 82 86 75 74 80 87 98 101 103 109 107 120 106 124 121 116 135 129 135 124 139 83
46 39 38 39 24 37 32 40 36 40 41 47 51 53 55 55 58 61 60 72 76 81 87 87 90 79 75 85 87 102 93 111 98 99 99 111 96 120 113 116 130 128 141 136 80
40 42 38 39 39 35 37 38 38 35 42 49 46 54 55 41 48 66 63 62 79 72 91 82 83 84 72 79 97 97 104 99 107 118 108 120 115 115 135 130 129 127 149 136 79
37 31 39 39 43 40 42 43 40 41 47 48 43 55 59 43 63 61 70 67 77 85 86 86 79 79 78 81 94 96 105 100 84 121 125 109 115 113 124 130 130 147 142 132 76
Wind_Direction
213 236 251 258 261 263 267 277 277 274 267 265 276 287 291 286 301 284 309 302 288 295 296 283 300 306 309 304 288 289 292 289 282 281 279 271 268 266 267 270 277 275 276 277 277
252 249 253 252 259 242 245 240 246 257 284 274 279 291 297 289 286 292 284 306 296 296 306 307 309 296 289 296 303 304 306 303 295 288 281 280 278 275 274 272 273 272 274 276 272
226 246 249 247 226 249 241 268 261 265 276 281 286 285 304 308 295 305 306 326 312 317 309 303 305 305 306 299 302 302 302 296 292 289 282 278 273 273 272 274 276 274 274 274 274
245 246 259 207 207 221 251 248 258 266 276 288 288 301 316 293 309 312 313 316 290 293 290 322 307 307 318 320 312 296 296 296 296 292 287 287 286 280 279 277 273 271 271 272 274
244 244 229 202 206 230 244 247 261 271 271 295 285 291 292 296 318 307 309 348 315 313 335 357 334 317 319 330 327 319 311 302 296 290 287 290 286 292 290 287 285 283 281 277 280
237 239 242 249 234 226 247 260 265 273 290 282 287 296 299 302 322 329 315 327 337 352 345 352 342 321 351 343 332 322 312 309 304 301 295 290 290 289 288 286 285 287 286 284 280
240 240 240 259 253 259 265 268 281 285 289 291 297 297 295 325 324 311 314 318 354 315 315 330 1 331 325 347 334 326 323 316 313 302 301 298 296 295 293 291 291 290 287 284 282
241 244 245 252 255 263 275 276 280 287 286 314 289 296 307 309 323 328 313 317 326 332 317 336 344 356 346 326 326 348 329 344 310 301 309 304 303 300 298 294 295 292 290 289 287
239 230 237 245 256 263 277 279 282 290 294 305 304 305 304 309 320 325 325 318 333 324 311 319 351 343 1 353 343 303 321 344 320 327 320 321 324 313 311 305 301 301 299 297 294
229 228 228 232 258 266 273 279 281 289 303 304 312 318 313 307 320 326 325 326 308 324 359 301 305 326 331 359 356 305 303 333 306 359 338 327 348 334 302 307 303 305 298 297 295
232 237 229 243 260 266 274 287 283 294 312 314 314 316 311 310 319 323 328 334 316 330 358 281 337 358 353 359 270 358 265 331 333 349 349 304 347 334 320 320 336 308 336 298 302
249 242 251 260 265 271 279 287 289 295 303 313 311 308 311 328 328 318 341 342 340 329 347 351 347 1 311 359 350 271 277 338 299 354 354 305 295 324 314 325 320 316 307 331 311
249 253 256 263 269 270 278 288 289 288 305 304 315 312 319 313 316 335 347 337 336 341 329 355 349 356 358 351 4 347 357 347 353 319 317 330 286 339 336 323 301 306 316 299 292
250 256 260 262 268 275 281 284 292 304 301 312 312 310 310 316 326 336 334 334 332 339 347 317 354 357 308 353 359 358 284 348 332 295 346 300 339 336 312 337 310 308 310 325 310
244 234 238 249 267 273 279 282 295 293 306 309 278 311 314 327 327 326 336 333 339 341 343 348 353 353 353 301 349 319 356 281 327 354 342 316 342 288 324 346 325 335 320 331 308
224 236 248 256 262 252 277 286 288 302 299 310 314 316 323 327 339 334 341 330 342 310 346 348 346 350 339 347 349 342 341 353 314 355 341 338 345 317 335 342 328 331 331 318 332
245 242 246 256 264 270 277 285 292 301 306 307 311 314 317 318 319 338 330 330 337 339 344 349 350 349 346 345 350 347 350 350 350 340 336 333 339 337 330 333 334 327 329 333 328
246 243 253 246 265 271 273 296 291 300 310 311 316 319 317 327 325 340 343 336 338 340 345 348 348 344 341 339 321 350 346 349 345 334 337 345 332 335 333 337 331 341 330 332 334
244 244 244 257 256 268 275 286 293 298 304 312 319 331 328 335 324 324 294 310 337 345 348 346 349 344 324 342 348 346 322 348 347 351 340 337 338 343 341 341 332 342 335 342 337
236 245 240 258 264 272 274 285 290 295 305 312 317 318 325 320 336 343 318 345 339 342 342 347 348 336 346 340 350 346 335 347 345 341 342 343 340 341 342 336 340 345 338 341 340
240 241 240 247 266 269 276 282 290 295 307 310 308 314 316 322 328 334 339 341 341 339 341 336 346 347 341 344 340 341 341 339 337 344 338 342 346 343 341 342 347 347 343 344 338
227 241 236 245 258 264 268 281 284 295 302 307 310 317 324 336 303 330 336 334 339 339 342 332 345 343 344 340 339 343 339 345 343 350 339 346 338 345 341 343 342 346 350 348 334
234 232 239 245 260 263 270 277 282 291 302 310 312 313 317 331 322 326 336 336 336 339 341 342 344 342 326 338 341 345 337 337 339 343 344 342 344 341 341 346 344 347 349 346 340
230 235 234 248 258 266 267 273 279 293 305 309 312 316 326 319 325 329 327 332 334 336 341 339 339 340 336 333 337 342 339 337 337 340 339 344 344 344 338 340 344 351 345 347 343
229 236 240 247 267 265 268 268 286 286 301 304 310 319 325 322 327 327 327 335 335 335 335 340 339 335 336 338 339 341 344 340 342 352 344 342 346 342 348 345 349 349 348 348 343
248 232 236 256 259 261 266 281 282 300 305 304 305 317 317 302 312 331 324 331 333 335 336 336 338 337 335 334 336 330 339 340 334 334 345 336 345 347 340 344 349 349 351 349 343
246 256 241 244 255 265 275 276 283 294 299 305 300 313 317 300 329 326 331 331 334 336 336 335 336 332 331 330 337 333 338 333 340 330 329 346 344 344 347 342 350 353 350 350 342